Yakima, WA

1:56 AM PST on February 24, 2017 (GMT -0800)
Yakima Air Term-McAllister

Weather History for KYKM - August, 2014

Change the Weather History Date:

Saturday, August 9, 2014

  Actual Average Record
Temperature  
Mean Temperature 73 °F 71 °F  
Max Temperature 92 °F 89 °F 108 °F (1971)
Min Temperature 54 °F 53 °F 43 °F (1985)
Degree Days  
Heating Degree Days 0 1  
Month to date heating degree days 0 2  
Since 1 June heating degree days 35 121  
Since 1 July heating degree days 5 23  
Cooling Degree Days 8 7  
Month to date cooling degree days 133 63  
Year to date cooling degree days 666 343  
Since 1 June cooling degree days 643 323  
Growing Degree Days 22 (Base 50)    
Moisture  
Dew Point 44 °F    
Average Humidity 39    
Maximum Humidity 62    
Minimum Humidity 15    
Precipitation  
Precipitation 0.00 in 0.01 in 0.32 in (1982)
Month to date precipitation T 0.06  
Year to date precipitation 3.06 4.57  
Snow  
Snow 0.00 in 0.00 in 0.00 in (2002)
Month to date snowfall 0.0 0.0  
Year to date snowfall 19.9 8.6  
Since 1 July snowfall 0.0 0.0  
Snow Depth 0.00 in    
Sea Level Pressure  
Sea Level Pressure 30.02 in    
Wind  
Wind Speed 5 mph (WNW)    
Max Wind Speed 18 mph    
Max Gust Speed 24 mph    
Visibility 10 miles    
Events      
T = Trace of Precipitation, MM = Missing Value Source: NWS Daily Summary

Daily Weather History Graph

Daily Weather History Graph

Search for Another Location

Airport or City:

Trip Planner

Search our weather history database for the weather conditions in past years. The results will help you decide how hot, cold, wet, or windy it might be!

Date:

Astronomy

Aug. 09, 2014 Rise Set
Actual Time 5:52 AM PDT 8:21 PM PDT
Civil Twilight 5:19 AM PDT 8:55 PM PDT
Nautical Twilight 4:36 AM PDT 9:37 PM PDT
Astronomical Twilight 3:47 AM PDT 10:25 PM PDT
Moon 7:24 PM PDT (8/9) 4:39 AM PDT (8/9)
Length of Visible Light 15h 36m
Length of Day
14h 28m
Waxing Gibbous, 99% of the Moon is Illuminated
Aug 9
Waxing Gibbous
Aug 10
Full
Aug 17
Last Quarter
Aug 25
New
Sep 2
First Quarter

Hourly Weather History & Observations

Time (PDT) Temp. Dew Point Humidity Pressure Visibility Wind Dir Wind Speed Gust Speed Precip Events Conditions
12:53 AM 70.0 °F 44.1 °F 39% 29.99 in 10.0 mi NNW 12.7 mph - N/A   Clear
1:53 AM 68.0 °F 44.1 °F 42% 29.99 in 10.0 mi NW 12.7 mph - N/A   Clear
2:53 AM 66.9 °F 45.0 °F 45% 30.00 in 10.0 mi NNW 10.4 mph - N/A   Clear
3:53 AM 66.9 °F 44.1 °F 44% 30.01 in 10.0 mi North 5.8 mph - N/A   Clear
4:53 AM 64.0 °F 45.0 °F 50% 30.02 in 10.0 mi WNW 5.8 mph - N/A   Clear
5:53 AM 62.1 °F 44.1 °F 52% 30.04 in 10.0 mi WNW 5.8 mph - N/A   Clear
6:53 AM 57.9 °F 44.1 °F 60% 30.07 in 10.0 mi West 6.9 mph - N/A   Clear
7:53 AM 66.9 °F 45.0 °F 45% 30.08 in 10.0 mi NNW 5.8 mph - N/A   Clear
8:53 AM 71.1 °F 44.1 °F 38% 30.08 in 10.0 mi NW 6.9 mph - N/A   Clear
9:53 AM 73.4 °F 44.6 °F 36% 30.08 in 10.0 mi Variable 4.6 mph - N/A   Clear
10:53 AM 78.1 °F 44.1 °F 30% 30.06 in 10.0 mi SW 5.8 mph - N/A   Clear
11:53 AM 82.9 °F 39.0 °F 21% 30.05 in 10.0 mi Calm Calm - N/A   Clear
12:53 PM 87.1 °F 39.9 °F 19% 30.04 in 10.0 mi SE 4.6 mph - N/A   Clear
1:53 PM 87.1 °F 42.1 °F 21% 30.02 in 10.0 mi South 5.8 mph - N/A   Clear
2:53 PM 89.1 °F 35.1 °F 15% 30.01 in 10.0 mi Variable 4.6 mph - N/A   Clear
3:53 PM 90.0 °F 39.9 °F 17% 30.00 in 10.0 mi ENE 4.6 mph - N/A   Clear
4:53 PM 91.0 °F 42.1 °F 18% 29.98 in 10.0 mi East 4.6 mph - N/A   Clear
5:53 PM 90.0 °F 42.1 °F 19% 29.96 in 10.0 mi Calm Calm - N/A   Clear
6:53 PM 89.1 °F 42.1 °F 19% 29.96 in 10.0 mi Calm Calm - N/A   Clear
7:53 PM 84.2 °F 44.6 °F 25% 29.99 in 10.0 mi South 4.6 mph - N/A   Clear
8:53 PM 72.0 °F 50.0 °F 46% 29.98 in 10.0 mi Calm Calm - N/A   Clear
9:53 PM 68.0 °F 52.0 °F 56% 30.01 in 10.0 mi West 5.8 mph - N/A   Clear
10:53 PM 72.0 °F 50.0 °F 46% 30.01 in 10.0 mi WSW 8.1 mph - N/A   Clear
11:53 PM 70.0 °F 48.0 °F 46% 30.02 in 10.0 mi West 9.2 mph - N/A   Clear